Weather History for Frenchville, ME

Change the Weather History Date:

Tuesday, October 8, 2013

  Actual Average Record
Temperature  
Mean Temperature 47 °F 45 °F  
Max Temperature 54 °F 53 °F 75 °F (2004)
Min Temperature 40 °F 37 °F 27 °F (1999)
Degree Days  
Heating Degree Days 18    
Month to date heating degree days 112  
Since 1 July heating degree days 568  
Cooling Degree Days 0    
Month to date cooling degree days 0  
Year to date cooling degree days 139  
Moisture  
Dew Point 39 °F    
Average Humidity 70    
Maximum Humidity 96    
Minimum Humidity 43    
Precipitation  
Precipitation 0.01 in 0.09 in 0.73 in (2014)
Month to date precipitation 0.53 0.70  
Year to date precipitation 28.94 26.28  
Sea Level Pressure  
Sea Level Pressure 29.96 in    
Wind  
Wind Speed 13 mph (West)    
Max Wind Speed 30 mph    
Max Gust Speed 38 mph    
Visibility 10 miles    
Events Rain    
T = Trace of Precipitation, MM = Missing Value Source: NWS Daily Summary

Daily Weather History Graph

Daily Weather History Graph

Search for Another Location

Airport:

Trip Planner

Search our weather history database for the weather conditions in past years. The results will help you decide how hot, cold, wet, or windy it might be!

Date:

Astronomy

Oct. 08, 2013 Rise Set
Actual Time 6:42 AM EDT 5:58 PM EDT
Civil Twilight 6:11 AM EDT 6:29 PM EDT
Nautical Twilight 5:36 AM EDT 7:04 PM EDT
Astronomical Twilight 5:00 AM EDT 7:40 PM EDT
Moon 10:47 AM EDT (10/8) 8:16 PM EDT (10/8)
Length of Visible Light 12h 17m
Length of Day
11h 16m
Waxing Crescent, 16% of the Moon is Illuminated
Oct 8
Waxing Crescent
Oct 11
First Quarter
Oct 18
Full
Oct 26
Last Quarter
Nov 3
New

Hourly Weather History & Observations

Time (EDT) Temp. Windchill Dew Point Humidity Pressure Visibility Wind Dir Wind Speed Gust Speed Precip Events Conditions
12:15 AM 53.6 °F - 51.8 °F 94% 29.68 in 6.0 mi West 11.5 mph 21.9 mph 0.04 in Rain Rain
12:38 AM 53.6 °F - 51.8 °F 94% 29.70 in 5.0 mi WSW 9.2 mph - 0.12 in Rain Rain
12:53 AM 53.1 °F - 52.0 °F 96% 29.72 in 10.0 mi SSW 9.2 mph - 0.13 in Rain Light Rain
1:44 AM 51.8 °F - 48.2 °F 88% 29.71 in 10.0 mi WSW 11.5 mph 18.4 mph 0.01 in   Overcast
1:53 AM 52.0 °F - 48.0 °F 86% 29.72 in 10.0 mi West 6.9 mph - 0.01 in   Overcast
2:53 AM 51.1 °F - 46.9 °F 86% 29.73 in 10.0 mi WSW 10.4 mph - N/A   Mostly Cloudy
3:53 AM 50.0 °F - 46.9 °F 89% 29.73 in 10.0 mi SSW 6.9 mph - N/A   Overcast
4:09 AM 50.0 °F - 46.4 °F 87% 29.73 in 10.0 mi SSW 8.1 mph - N/A   Overcast
4:53 AM 48.9 °F - 46.0 °F 90% 29.75 in 10.0 mi SSW 6.9 mph - N/A   Mostly Cloudy
5:53 AM 50.0 °F - 44.1 °F 80% 29.77 in 10.0 mi SW 10.4 mph 17.3 mph N/A   Overcast
6:43 AM 48.2 °F - 42.8 °F 82% 29.79 in 10.0 mi WSW 11.5 mph - N/A   Mostly Cloudy
6:53 AM 48.9 °F - 43.0 °F 80% 29.79 in 10.0 mi WSW 13.8 mph 21.9 mph N/A   Mostly Cloudy
7:07 AM 50.0 °F - 42.8 °F 76% 29.81 in 10.0 mi West 18.4 mph 24.2 mph N/A   Mostly Cloudy
7:42 AM 48.2 °F - 39.2 °F 71% 29.85 in 10.0 mi WNW 26.5 mph 34.5 mph N/A   Overcast
7:53 AM 48.0 °F - 39.0 °F 71% 29.87 in 10.0 mi WNW 19.6 mph 36.8 mph N/A   Scattered Clouds
8:53 AM 48.0 °F - 36.0 °F 63% 29.91 in 10.0 mi WNW 25.3 mph 36.8 mph N/A   Partly Cloudy
9:53 AM 50.0 °F - 35.1 °F 57% 29.96 in 10.0 mi WNW 19.6 mph 32.2 mph N/A   Partly Cloudy
10:53 AM 50.0 °F - 33.1 °F 52% 30.00 in 10.0 mi WNW 19.6 mph 28.8 mph N/A   Scattered Clouds
11:53 AM 50.0 °F - 33.1 °F 52% 30.03 in 10.0 mi West 19.6 mph 27.6 mph N/A   Partly Cloudy
12:53 PM 52.0 °F - 32.0 °F 47% 30.06 in 10.0 mi WNW 15.0 mph 29.9 mph N/A   Overcast
1:53 PM 53.1 °F - 32.0 °F 45% 30.07 in 10.0 mi West 18.4 mph 31.1 mph N/A   Scattered Clouds
2:53 PM 53.1 °F - 30.9 °F 43% 30.11 in 10.0 mi West 23.0 mph 29.9 mph N/A   Scattered Clouds
3:53 PM 52.0 °F - 30.0 °F 43% 30.14 in 10.0 mi West 20.7 mph 29.9 mph N/A   Scattered Clouds
4:53 PM 51.1 °F - 30.9 °F 46% 30.17 in 10.0 mi West 17.3 mph - N/A   Partly Cloudy
5:53 PM 48.0 °F - 32.0 °F 54% 30.18 in 10.0 mi West 10.4 mph - N/A   Clear
6:53 PM 46.0 °F 41.4 °F 33.1 °F 61% 30.22 in 10.0 mi West 9.2 mph - N/A   Clear
7:53 PM 44.1 °F 39.5 °F 32.0 °F 63% 30.26 in 10.0 mi WNW 8.1 mph - N/A   Clear
8:53 PM 43.0 °F 37.2 °F 32.0 °F 65% 30.28 in 10.0 mi West 10.4 mph - N/A   Clear
9:53 PM 43.0 °F 37.7 °F 33.1 °F 68% 30.30 in 10.0 mi WNW 9.2 mph - N/A   Clear
10:53 PM 42.1 °F 36.1 °F 32.0 °F 67% 30.31 in 10.0 mi WNW 10.4 mph - N/A   Clear
11:53 PM 43.0 °F 38.2 °F 32.0 °F 65% 30.31 in 10.0 mi West 8.1 mph - N/A   Clear